Tracking 29892 objects as of 21-Nov-2024
HD Live streaming from Space Station
objects crossing your sky now

CENTISPACE-1 S6

Track CENTISPACE-1 S6 now!
10-day predictions


NORAD ID: 54021
Int'l Code: 2022-126B
Perigee: 688.9 km
Apogee: 707.5 km
Inclination: 55.0 °
Period: 98.6 minutes
Semi major axis: 7069 km
RCS: Unknown
Launch date: October 7, 2022
Source: People's Republic of China (PRC)
Launch site: Yellow Sea Launch Area, China (YSLA)
Your satellite tracking list
Your tracking list is empty




NASA's NSSDC Master Catalog

Two Line Element Set (TLE):
1 54021U 22126B   24326.12168279  .00001575  00000-0  35874-3 0  9996
2 54021  55.0001 342.9562 0013188 214.8762 145.1368 14.60648840113203
Source of the keplerian elements: AFSPC